User: anonymous   Login
Location: Oshawa
(43.9000°N, 78.8670°W)
Time: 09:11:26
(UTC-05:00)
Language:

Cosmos 1500 - Orbit

View from above orbital plane
View from above orbital plane
View from above satellite
View from above satellite

Ground track
Ground track

The orbit data is extracted from the following two-line orbital elements,

1 14372U 83099A   17022.19386631  .00000707  00000-0  33925-4 0  9995
2 14372  82.5169 127.8291 0014564 229.1089 172.4806 15.17160642815668
Epoch (UTC): 22 January 2017 04:39:10
Eccentricity: 0.0014564
inclination: 82.5169°
perigee height: 504 km
apogee height: 524 km
right ascension of ascending node: 127.8291°
argument of perigee: 229.1089°
revolutions per day: 15.17160642
mean anomaly at epoch: 172.4806°
orbit number at epoch: 81566

The dashed part of the orbit path shows where the satellite is in the earth's shadow,  

DLR